Qianfan Jigui 01-10

operational
NORAD ID: 60388 Int'l Des: 2024-140 Owner: YUANX Country: CN Constellation: qianfan
LEOCIRCULARPOLAR

关于 Qianfan Jigui 01-10

正在加载描述...

实时位置

正在加载3D地球...

即将过境

高度历史

Altitude vs Time

uPlot chart will show altitude changes over time

两行轨道根数

1 60388U 24140K 26061.60330248 .00000120 00000-0 16710-3 0 9998
2 60388 88.9736 290.4364 0013462 309.7622 50.2343 13.50995909 78249
Epoch: Mar 2, 2026 • Age: 31 hours

当前状态

高度 1066.7 km
速度 7.32 km/s
星下点 13.88°N, 31.39°E
发射日期 Aug 6, 2024
运行时间 1.5 years
类型 internet

技术详情

分类 Payload
质量 267.00 kg
干质量 267.00 kg
总质量 267.00 kg
长度 0.30 m
直径 3.00 m
跨度 10.00 m
形状 Box+pan
制造商 SECM
平台类型 Qianfan
阶段状态 In Orbit
所有者/国家 YUANX/CN

大型星座

Loading constellations...